Time,TemperatureF,DewpointF,PressureIn,WindDirection,WindDirectionDegrees,WindSpeedMPH,WindSpeedGustMPH,Humidity,HourlyPrecipIn,Conditions,Clouds,dailyrainin,SoftwareType,DateUTC
2013-04-17 00:00:00,61.0,60.0,30.08,West,270,5.0,6.0,97,0.00,,,0.00,Rainwise IP-100,2013-04-17 04:00:00,
2013-04-17 00:05:00,60.0,59.0,30.08,South,180,1.0,7.0,97,0.00,,,0.00,Rainwise IP-100,2013-04-17 04:05:00,
2013-04-17 00:10:00,60.0,59.0,30.08,NW,315,4.0,5.0,97,0.00,,,0.00,Rainwise IP-100,2013-04-17 04:10:00,
2013-04-17 00:15:00,60.0,59.5,30.08,South,180,5.0,8.0,98,0.00,,,0.00,Rainwise IP-100,2013-04-17 04:15:00,
2013-04-17 00:16:00,60.0,59.5,30.08,South,180,4.0,8.0,98,0.00,,,0.00,Rainwise IP-100,2013-04-17 04:16:00,
2013-04-17 00:21:00,60.0,59.5,30.08,South,180,3.0,7.0,98,0.00,,,0.00,Rainwise IP-100,2013-04-17 04:21:00,
2013-04-17 00:26:00,60.0,59.5,30.08,South,180,2.0,6.0,98,0.00,,,0.00,Rainwise IP-100,2013-04-17 04:26:00,
2013-04-17 00:31:00,60.0,59.5,30.08,South,180,3.0,6.0,98,0.00,,,0.00,Rainwise IP-100,2013-04-17 04:31:00,
2013-04-17 00:36:00,60.0,59.5,30.08,South,180,3.0,6.0,98,0.00,,,0.00,Rainwise IP-100,2013-04-17 04:36:00,
2013-04-17 00:41:00,60.0,59.5,30.08,South,180,4.0,6.0,98,0.00,,,0.00,Rainwise IP-100,2013-04-17 04:41:00,
2013-04-17 00:46:00,60.0,59.5,30.08,South,180,3.0,6.0,98,0.00,,,0.00,Rainwise IP-100,2013-04-17 04:46:00,
2013-04-17 00:51:00,60.0,59.5,30.08,South,180,3.0,6.0,98,0.00,,,0.00,Rainwise IP-100,2013-04-17 04:51:00,
2013-04-17 00:56:00,60.0,59.5,30.08,South,180,6.0,6.0,98,0.00,,,0.00,Rainwise IP-100,2013-04-17 04:56:00,
2013-04-17 01:01:00,60.0,59.5,30.08,South,180,4.0,6.0,98,0.00,,,0.00,Rainwise IP-100,2013-04-17 05:01:00,
2013-04-17 01:06:00,60.0,59.5,30.08,South,180,5.0,6.0,98,0.00,,,0.00,Rainwise IP-100,2013-04-17 05:06:00,
2013-04-17 01:11:00,60.0,59.5,30.07,South,180,1.0,7.0,98,0.00,,,0.00,Rainwise IP-100,2013-04-17 05:11:00,
2013-04-17 01:16:00,60.0,59.5,30.07,South,180,3.0,6.0,99,0.00,,,0.00,Rainwise IP-100,2013-04-17 05:16:00,
2013-04-17 01:21:00,60.0,59.5,30.07,South,180,4.0,6.0,99,0.00,,,0.00,Rainwise IP-100,2013-04-17 05:21:00,
2013-04-17 01:26:00,60.0,59.5,30.07,South,180,5.0,7.0,99,0.00,,,0.00,Rainwise IP-100,2013-04-17 05:26:00,
2013-04-17 01:31:00,60.0,59.5,30.06,South,180,4.0,6.0,98,0.00,,,0.00,Rainwise IP-100,2013-04-17 05:31:00,
2013-04-17 01:36:00,60.0,59.5,30.06,South,180,4.0,7.0,99,0.00,,,0.00,Rainwise IP-100,2013-04-17 05:36:00,
2013-04-17 01:41:00,60.0,59.5,30.07,South,180,4.0,7.0,98,0.00,,,0.00,Rainwise IP-100,2013-04-17 05:41:00,
2013-04-17 01:46:00,60.0,59.5,30.07,South,180,5.0,6.0,98,0.00,,,0.00,Rainwise IP-100,2013-04-17 05:46:00,
2013-04-17 01:51:00,60.0,59.5,30.07,South,180,4.0,6.0,98,0.00,,,0.00,Rainwise IP-100,2013-04-17 05:51:00,
2013-04-17 01:56:00,60.0,59.5,30.07,South,180,5.0,6.0,98,0.00,,,0.00,Rainwise IP-100,2013-04-17 05:56:00,
2013-04-17 02:01:00,60.0,59.5,30.07,South,180,5.0,6.0,98,0.00,,,0.00,Rainwise IP-100,2013-04-17 06:01:00,
2013-04-17 02:06:00,60.0,59.5,30.07,South,180,2.0,6.0,98,0.00,,,0.00,Rainwise IP-100,2013-04-17 06:06:00,
2013-04-17 02:11:00,60.0,59.5,30.07,South,180,5.0,6.0,99,0.00,,,0.00,Rainwise IP-100,2013-04-17 06:11:00,
2013-04-17 02:16:00,60.0,59.5,30.07,South,180,5.0,9.0,99,0.00,,,0.00,Rainwise IP-100,2013-04-17 06:16:00,
2013-04-17 02:21:00,60.0,59.5,30.07,South,180,5.0,6.0,99,0.00,,,0.00,Rainwise IP-100,2013-04-17 06:21:00,
2013-04-17 02:26:00,60.0,59.5,30.07,South,180,4.0,6.0,99,0.00,,,0.00,Rainwise IP-100,2013-04-17 06:26:00,
2013-04-17 02:31:00,60.0,59.5,30.06,South,180,4.0,7.0,99,0.00,,,0.00,Rainwise IP-100,2013-04-17 06:31:00,
2013-04-17 02:36:00,60.0,59.5,30.06,South,180,4.0,9.0,99,0.00,,,0.00,Rainwise IP-100,2013-04-17 06:36:00,
2013-04-17 02:41:00,60.0,59.5,30.06,South,180,2.0,11.0,99,0.00,,,0.00,Rainwise IP-100,2013-04-17 06:41:00,
2013-04-17 02:46:00,60.0,59.5,30.06,South,180,3.0,10.0,99,0.00,,,0.00,Rainwise IP-100,2013-04-17 06:46:00,
2013-04-17 02:51:00,60.0,59.5,30.06,South,180,2.0,7.0,99,0.00,,,0.00,Rainwise IP-100,2013-04-17 06:51:00,
2013-04-17 02:56:00,60.0,59.5,30.06,South,180,5.0,5.0,99,0.00,,,0.00,Rainwise IP-100,2013-04-17 06:56:00,
2013-04-17 03:01:00,60.0,59.5,30.06,South,180,2.0,8.0,99,0.00,,,0.00,Rainwise IP-100,2013-04-17 07:01:00,
2013-04-17 03:06:00,60.0,59.5,30.06,West,270,2.0,3.0,99,0.00,,,0.00,Rainwise IP-100,2013-04-17 07:06:00,
2013-04-17 03:11:00,60.0,59.5,30.07,South,180,2.0,3.0,99,0.00,,,0.00,Rainwise IP-100,2013-04-17 07:11:00,
2013-04-17 03:16:00,60.0,59.5,30.07,South,180,3.0,4.0,99,0.00,,,0.00,Rainwise IP-100,2013-04-17 07:16:00,
2013-04-17 03:21:00,60.0,59.5,30.06,South,180,3.0,4.0,99,0.00,,,0.00,Rainwise IP-100,2013-04-17 07:21:00,
2013-04-17 03:26:00,60.0,59.5,30.06,South,180,2.0,4.0,99,0.00,,,0.00,Rainwise IP-100,2013-04-17 07:26:00,
2013-04-17 03:31:00,60.0,59.5,30.06,South,180,3.0,4.0,99,0.00,,,0.00,Rainwise IP-100,2013-04-17 07:31:00,
2013-04-17 03:36:00,60.0,59.5,30.06,South,180,2.0,4.0,99,0.00,,,0.00,Rainwise IP-100,2013-04-17 07:36:00,
2013-04-17 03:41:00,59.0,59.0,30.06,South,180,4.0,4.0,99,0.00,,,0.00,Rainwise IP-100,2013-04-17 07:41:00,
2013-04-17 03:46:00,59.0,59.0,30.06,South,180,3.0,4.0,99,0.00,,,0.00,Rainwise IP-100,2013-04-17 07:46:00,
2013-04-17 03:51:00,59.0,59.0,30.06,South,180,2.0,3.0,99,0.00,,,0.00,Rainwise IP-100,2013-04-17 07:51:00,
2013-04-17 03:56:00,59.0,59.0,30.06,SW,225,1.0,3.0,99,0.00,,,0.00,Rainwise IP-100,2013-04-17 07:56:00,
2013-04-17 04:01:00,59.0,59.0,30.06,SW,225,2.0,2.0,99,0.00,,,0.00,Rainwise IP-100,2013-04-17 08:01:00,
2013-04-17 04:06:00,59.0,59.0,30.06,SW,225,0.0,2.0,99,0.00,,,0.00,Rainwise IP-100,2013-04-17 08:06:00,
2013-04-17 04:11:00,59.0,59.0,30.07,SW,225,0.0,0.0,99,0.00,,,0.00,Rainwise IP-100,2013-04-17 08:11:00,
2013-04-17 04:16:00,59.0,59.0,30.07,SW,225,0.0,0.0,99,0.00,,,0.00,Rainwise IP-100,2013-04-17 08:16:00,
2013-04-17 04:21:00,59.0,59.0,30.08,SW,225,0.0,0.0,99,0.00,,,0.00,Rainwise IP-100,2013-04-17 08:21:00,
2013-04-17 04:26:00,59.0,59.0,30.08,SW,225,0.0,0.0,99,0.00,,,0.00,Rainwise IP-100,2013-04-17 08:26:00,
2013-04-17 04:31:00,59.0,59.0,30.06,SW,225,0.0,0.0,99,0.00,,,0.00,Rainwise IP-100,2013-04-17 08:31:00,
2013-04-17 04:36:00,59.0,59.0,30.06,SW,225,1.0,4.0,99,0.00,,,0.00,Rainwise IP-100,2013-04-17 08:36:00,
2013-04-17 04:41:00,60.0,59.5,30.06,SW,225,1.0,4.0,99,0.00,,,0.00,Rainwise IP-100,2013-04-17 08:41:00,
2013-04-17 04:46:00,60.0,59.5,30.06,SW,225,1.0,2.0,99,0.00,,,0.00,Rainwise IP-100,2013-04-17 08:46:00,
2013-04-17 04:51:00,60.0,59.5,30.06,SW,225,0.0,2.0,99,0.00,,,0.00,Rainwise IP-100,2013-04-17 08:51:00,
2013-04-17 04:56:00,59.0,59.0,30.06,SW,225,0.0,2.0,99,0.00,,,0.00,Rainwise IP-100,2013-04-17 08:56:00,
2013-04-17 05:01:00,60.0,59.5,30.06,SW,225,1.0,2.0,99,0.00,,,0.00,Rainwise IP-100,2013-04-17 09:01:00,
2013-04-17 05:06:00,59.0,59.0,30.06,NE,45,0.0,5.0,99,0.00,,,0.00,Rainwise IP-100,2013-04-17 09:06:00,
2013-04-17 05:11:00,59.0,59.0,30.04,NE,45,1.0,2.0,99,0.00,,,0.00,Rainwise IP-100,2013-04-17 09:11:00,
2013-04-17 05:16:00,59.0,59.0,30.04,NE,45,0.0,1.0,99,0.00,,,0.00,Rainwise IP-100,2013-04-17 09:16:00,
2013-04-17 05:21:00,59.0,59.0,30.06,NE,45,0.0,0.0,99,0.00,,,0.00,Rainwise IP-100,2013-04-17 09:21:00,
2013-04-17 05:26:00,59.0,59.0,30.06,NE,45,0.0,0.0,99,0.00,,,0.00,Rainwise IP-100,2013-04-17 09:26:00,
2013-04-17 05:31:00,59.0,59.0,30.06,NE,45,0.0,0.0,100,0.00,,,0.00,Rainwise IP-100,2013-04-17 09:31:00,
2013-04-17 05:36:00,59.0,59.0,30.06,NE,45,0.0,0.0,100,0.00,,,0.00,Rainwise IP-100,2013-04-17 09:36:00,
2013-04-17 05:41:00,59.0,59.0,30.06,NE,45,0.0,0.0,99,0.00,,,0.00,Rainwise IP-100,2013-04-17 09:41:00,
2013-04-17 05:46:00,58.0,57.5,30.06,NE,45,0.0,0.0,98,0.00,,,0.00,Rainwise IP-100,2013-04-17 09:46:00,
2013-04-17 05:51:00,58.0,57.5,30.06,NE,45,1.0,1.0,98,0.00,,,0.00,Rainwise IP-100,2013-04-17 09:51:00,
2013-04-17 05:56:00,58.0,57.5,30.06,North,360,4.0,6.0,98,0.00,,,0.00,Rainwise IP-100,2013-04-17 09:56:00,
2013-04-17 06:01:00,58.0,58.0,30.05,WNW,292,5.0,5.0,99,0.00,,,0.00,Rainwise IP-100,2013-04-17 10:01:00,
2013-04-17 06:06:00,58.0,57.5,30.05,NNE,22,6.0,15.0,98,0.00,,,0.00,Rainwise IP-100,2013-04-17 10:06:00,
2013-04-17 06:11:00,57.0,56.5,30.07,NW,315,6.0,12.0,98,0.00,,,0.00,Rainwise IP-100,2013-04-17 10:11:00,
2013-04-17 06:16:00,57.0,56.5,30.07,NNW,337,6.0,12.0,98,0.00,,,0.00,Rainwise IP-100,2013-04-17 10:16:00,
2013-04-17 06:21:00,57.0,56.5,30.10,North,360,4.0,15.0,98,0.00,,,0.00,Rainwise IP-100,2013-04-17 10:21:00,
2013-04-17 06:26:00,57.0,56.5,30.10,NNE,22,4.0,12.0,98,0.00,,,0.00,Rainwise IP-100,2013-04-17 10:26:00,
2013-04-17 06:31:00,57.0,56.5,30.10,NNE,22,3.0,8.0,98,0.00,,,0.00,Rainwise IP-100,2013-04-17 10:31:00,
2013-04-17 06:36:00,57.0,56.5,30.10,NW,315,4.0,10.0,98,0.00,,,0.00,Rainwise IP-100,2013-04-17 10:36:00,
2013-04-17 06:41:00,57.0,56.5,30.11,NNW,337,4.0,13.0,98,0.00,,,0.00,Rainwise IP-100,2013-04-17 10:41:00,
2013-04-17 06:46:00,57.0,56.5,30.11,NNW,337,7.0,12.0,98,0.00,,,0.00,Rainwise IP-100,2013-04-17 10:46:00,
2013-04-17 06:51:00,56.0,55.0,30.12,North,360,5.0,10.0,98,0.00,,,0.00,Rainwise IP-100,2013-04-17 10:51:00,
2013-04-17 06:56:00,56.0,55.0,30.12,NE,45,4.0,12.0,98,0.00,,,0.00,Rainwise IP-100,2013-04-17 10:56:00,
2013-04-17 07:01:00,56.0,55.0,30.14,NNW,337,4.0,15.0,98,0.00,,,0.00,Rainwise IP-100,2013-04-17 11:01:00,
2013-04-17 07:06:00,56.0,55.0,30.14,North,360,8.0,13.0,97,0.00,,,0.00,Rainwise IP-100,2013-04-17 11:06:00,
2013-04-17 07:11:00,56.0,54.5,30.15,North,360,10.0,15.0,96,0.00,,,0.00,Rainwise IP-100,2013-04-17 11:11:00,
2013-04-17 07:16:00,56.0,54.5,30.15,NW,315,6.0,15.0,96,0.00,,,0.00,Rainwise IP-100,2013-04-17 11:16:00,
2013-04-17 07:21:00,56.0,54.5,30.15,North,360,8.0,13.0,95,0.00,,,0.00,Rainwise IP-100,2013-04-17 11:21:00,
2013-04-17 07:26:00,56.0,54.0,30.15,North,360,5.0,15.0,94,0.00,,,0.00,Rainwise IP-100,2013-04-17 11:26:00,
2013-04-17 07:31:00,56.0,54.0,30.16,NNW,337,8.0,15.0,94,0.00,,,0.00,Rainwise IP-100,2013-04-17 11:31:00,
2013-04-17 07:36:00,56.0,54.0,30.16,North,360,8.0,12.0,94,0.00,,,0.00,Rainwise IP-100,2013-04-17 11:36:00,
2013-04-17 07:41:00,56.0,54.0,30.17,North,360,5.0,10.0,94,0.00,,,0.00,Rainwise IP-100,2013-04-17 11:41:00,
2013-04-17 07:46:00,56.0,54.0,30.17,North,360,4.0,11.0,94,0.00,,,0.00,Rainwise IP-100,2013-04-17 11:46:00,
2013-04-17 07:51:00,56.0,54.0,30.17,North,360,10.0,10.0,93,0.00,,,0.00,Rainwise IP-100,2013-04-17 11:51:00,
2013-04-17 07:56:00,56.0,53.5,30.17,North,360,9.0,10.0,91,0.00,,,0.00,Rainwise IP-100,2013-04-17 11:56:00,
2013-04-17 08:01:00,56.0,53.5,30.17,North,360,6.0,13.0,90,0.00,,,0.00,Rainwise IP-100,2013-04-17 12:01:00,
2013-04-17 08:06:00,56.0,52.0,30.17,North,360,9.0,13.0,87,0.00,,,0.00,Rainwise IP-100,2013-04-17 12:06:00,
2013-04-17 08:11:00,56.0,52.0,30.17,NW,315,10.0,13.0,87,0.00,,,0.00,Rainwise IP-100,2013-04-17 12:11:00,
2013-04-17 08:16:00,56.0,52.0,30.17,North,360,8.0,13.0,86,0.00,,,0.00,Rainwise IP-100,2013-04-17 12:16:00,
2013-04-17 08:21:00,56.0,52.0,30.16,North,360,6.0,13.0,86,0.00,,,0.00,Rainwise IP-100,2013-04-17 12:21:00,
2013-04-17 08:26:00,56.0,51.0,30.16,NW,315,8.0,14.0,85,0.00,,,0.00,Rainwise IP-100,2013-04-17 12:26:00,
2013-04-17 08:31:00,56.0,52.0,30.18,NW,315,6.0,12.0,86,0.00,,,0.00,Rainwise IP-100,2013-04-17 12:31:00,
2013-04-17 08:36:00,56.0,51.0,30.18,North,360,4.0,12.0,85,0.00,,,0.00,Rainwise IP-100,2013-04-17 12:36:00,
2013-04-17 08:41:00,56.0,51.0,30.18,North,360,5.0,12.0,84,0.00,,,0.00,Rainwise IP-100,2013-04-17 12:41:00,
2013-04-17 08:46:00,56.0,51.0,30.18,NNW,337,7.0,15.0,84,0.00,,,0.00,Rainwise IP-100,2013-04-17 12:46:00,
2013-04-17 08:51:00,56.0,51.0,30.18,North,360,7.0,12.0,84,0.00,,,0.00,Rainwise IP-100,2013-04-17 12:51:00,
2013-04-17 08:56:00,56.0,51.0,30.18,NE,45,6.0,10.0,84,0.00,,,0.00,Rainwise IP-100,2013-04-17 12:56:00,
2013-04-17 09:01:00,56.0,50.5,30.19,NNE,22,6.0,12.0,82,0.00,,,0.00,Rainwise IP-100,2013-04-17 13:01:00,
2013-04-17 09:06:00,56.0,50.5,30.19,NW,315,6.0,12.0,83,0.00,,,0.00,Rainwise IP-100,2013-04-17 13:06:00,
2013-04-17 09:11:00,56.0,50.0,30.19,NE,45,6.0,11.0,81,0.00,,,0.00,Rainwise IP-100,2013-04-17 13:11:00,
2013-04-17 09:16:00,56.0,50.5,30.19,NNW,337,5.0,11.0,82,0.00,,,0.00,Rainwise IP-100,2013-04-17 13:16:00,
2013-04-17 09:21:00,56.0,50.0,30.19,NNW,337,4.0,11.0,79,0.00,,,0.00,Rainwise IP-100,2013-04-17 13:21:00,
2013-04-17 09:26:00,56.0,48.0,30.19,North,360,9.0,12.0,76,0.00,,,0.00,Rainwise IP-100,2013-04-17 13:26:00,
2013-04-17 09:31:00,56.0,49.0,30.19,NW,315,2.0,12.0,78,0.00,,,0.00,Rainwise IP-100,2013-04-17 13:31:00,
2013-04-17 09:36:00,57.0,50.0,30.19,NNE,22,6.0,11.0,77,0.00,,,0.00,Rainwise IP-100,2013-04-17 13:36:00,
2013-04-17 09:41:00,57.0,49.0,30.19,North,360,3.0,12.0,74,0.00,,,0.00,Rainwise IP-100,2013-04-17 13:41:00,
2013-04-17 09:46:00,57.0,49.0,30.19,NNW,337,6.0,13.0,74,0.00,,,0.00,Rainwise IP-100,2013-04-17 13:46:00,
2013-04-17 09:51:00,57.0,49.0,30.18,NW,315,8.0,12.0,74,0.00,,,0.00,Rainwise IP-100,2013-04-17 13:51:00,
2013-04-17 09:56:00,57.0,48.0,30.18,NNE,22,2.0,12.0,72,0.00,,,0.00,Rainwise IP-100,2013-04-17 13:56:00,
2013-04-17 10:01:00,57.0,44.0,30.18,NE,45,7.0,12.0,62,0.00,,,0.00,Rainwise IP-100,2013-04-17 14:01:00,
2013-04-17 10:06:00,58.0,45.0,30.18,East,90,3.0,10.0,62,0.00,,,0.00,Rainwise IP-100,2013-04-17 14:06:00,
2013-04-17 10:11:00,58.0,44.0,30.18,North,360,6.0,15.0,60,0.00,,,0.00,Rainwise IP-100,2013-04-17 14:11:00,
2013-04-17 10:16:00,58.0,44.0,30.18,South,180,1.0,12.0,60,0.00,,,0.00,Rainwise IP-100,2013-04-17 14:16:00,
2013-04-17 10:21:00,58.0,44.0,30.18,North,360,2.0,9.0,59,0.00,,,0.00,Rainwise IP-100,2013-04-17 14:21:00,
2013-04-17 10:26:00,59.0,44.0,30.18,NE,45,2.0,6.0,58,0.00,,,0.00,Rainwise IP-100,2013-04-17 14:26:00,
2013-04-17 10:31:00,59.0,44.0,30.18,West,270,2.0,9.0,58,0.00,,,0.00,Rainwise IP-100,2013-04-17 14:31:00,
2013-04-17 10:36:00,59.0,43.0,30.18,NW,315,4.0,8.0,56,0.00,,,0.00,Rainwise IP-100,2013-04-17 14:36:00,
2013-04-17 10:41:00,59.0,43.0,30.18,NNE,22,5.0,7.0,55,0.00,,,0.00,Rainwise IP-100,2013-04-17 14:41:00,
2013-04-17 10:46:00,59.0,42.0,30.18,NNW,337,5.0,8.0,54,0.00,,,0.00,Rainwise IP-100,2013-04-17 14:46:00,
2013-04-17 10:51:00,59.0,42.0,30.17,NW,315,6.0,9.0,53,0.00,,,0.00,Rainwise IP-100,2013-04-17 14:51:00,
2013-04-17 10:56:00,59.0,43.0,30.17,NW,315,6.0,8.0,55,0.00,,,0.00,Rainwise IP-100,2013-04-17 14:56:00,
2013-04-17 11:01:00,59.0,43.0,30.18,North,360,9.0,10.0,55,0.00,,,0.00,Rainwise IP-100,2013-04-17 15:01:00,
2013-04-17 11:06:00,59.0,42.0,30.18,NNW,337,7.0,11.0,54,0.00,,,0.00,Rainwise IP-100,2013-04-17 15:06:00,
2013-04-17 11:11:00,59.0,42.0,30.17,East,90,0.0,9.0,54,0.00,,,0.00,Rainwise IP-100,2013-04-17 15:11:00,
2013-04-17 11:16:00,60.0,45.0,30.17,SE,135,0.0,6.0,58,0.00,,,0.00,Rainwise IP-100,2013-04-17 15:16:00,
2013-04-17 11:21:00,61.0,43.0,30.15,North,360,1.0,7.0,51,0.00,,,0.00,Rainwise IP-100,2013-04-17 15:21:00,
2013-04-17 11:26:00,61.0,41.0,30.15,NW,315,4.0,7.0,49,0.00,,,0.00,Rainwise IP-100,2013-04-17 15:26:00,
2013-04-17 11:31:00,62.0,41.0,30.15,NNW,337,3.0,9.0,47,0.00,,,0.00,Rainwise IP-100,2013-04-17 15:31:00,
2013-04-17 11:36:00,62.0,41.0,30.15,North,360,6.0,10.0,47,0.00,,,0.00,Rainwise IP-100,2013-04-17 15:36:00,
2013-04-17 11:41:00,62.0,42.0,30.15,North,360,5.0,10.0,49,0.00,,,0.00,Rainwise IP-100,2013-04-17 15:41:00,
2013-04-17 11:46:00,62.0,40.0,30.15,NE,45,6.0,10.0,45,0.00,,,0.00,Rainwise IP-100,2013-04-17 15:46:00,
2013-04-17 11:51:00,62.0,40.0,30.15,West,270,1.0,9.0,44,0.00,,,0.00,Rainwise IP-100,2013-04-17 15:51:00,
2013-04-17 11:56:00,63.0,42.0,30.15,NW,315,0.0,6.0,46,0.00,,,0.00,Rainwise IP-100,2013-04-17 15:56:00,
2013-04-17 12:01:00,64.0,40.0,30.14,NNE,22,6.0,9.0,41,0.00,,,0.00,Rainwise IP-100,2013-04-17 16:01:00,
2013-04-17 12:06:00,64.0,38.0,30.14,North,360,3.0,10.0,38,0.00,,,0.00,Rainwise IP-100,2013-04-17 16:06:00,
2013-04-17 12:11:00,65.0,39.0,30.14,East,90,6.0,7.0,39,0.00,,,0.00,Rainwise IP-100,2013-04-17 16:11:00,
2013-04-17 12:16:00,65.0,38.0,30.14,NW,315,1.0,6.0,37,0.00,,,0.00,Rainwise IP-100,2013-04-17 16:16:00,
2013-04-17 12:21:00,66.0,37.0,30.13,NW,315,2.0,10.0,35,0.00,,,0.00,Rainwise IP-100,2013-04-17 16:21:00,
2013-04-17 12:26:00,66.0,40.0,30.13,North,360,1.0,8.0,39,0.00,,,0.00,Rainwise IP-100,2013-04-17 16:26:00,
2013-04-17 12:31:00,66.0,37.0,30.13,North,360,6.0,9.0,34,0.00,,,0.00,Rainwise IP-100,2013-04-17 16:31:00,
2013-04-17 12:36:00,66.0,37.0,30.13,NNE,22,6.0,10.0,35,0.00,,,0.00,Rainwise IP-100,2013-04-17 16:36:00,
2013-04-17 12:41:00,66.0,37.0,30.13,North,360,7.0,11.0,34,0.00,,,0.00,Rainwise IP-100,2013-04-17 16:41:00,
2013-04-17 12:46:00,66.0,37.0,30.13,SE,135,5.0,11.0,34,0.00,,,0.00,Rainwise IP-100,2013-04-17 16:46:00,
2013-04-17 12:51:00,67.0,38.0,30.12,North,360,7.0,11.0,35,0.00,,,0.00,Rainwise IP-100,2013-04-17 16:51:00,
2013-04-17 12:56:00,67.0,38.0,30.12,North,360,4.0,12.0,34,0.00,,,0.00,Rainwise IP-100,2013-04-17 16:56:00,
2013-04-17 13:01:00,67.0,36.0,30.11,North,360,4.0,8.0,32,0.00,,,0.00,Rainwise IP-100,2013-04-17 17:01:00,
2013-04-17 13:06:00,69.0,40.0,30.11,South,180,5.0,6.0,35,0.00,,,0.00,Rainwise IP-100,2013-04-17 17:06:00,
2013-04-17 13:11:00,70.0,39.0,30.10,WNW,292,2.0,5.0,32,0.00,,,0.00,Rainwise IP-100,2013-04-17 17:11:00,
2013-04-17 13:16:00,70.0,39.0,30.10,South,180,4.0,7.0,33,0.00,,,0.00,Rainwise IP-100,2013-04-17 17:16:00,
2013-04-17 13:21:00,69.0,38.0,30.10,North,360,3.0,7.0,32,0.00,,,0.00,Rainwise IP-100,2013-04-17 17:21:00,
2013-04-17 13:26:00,70.0,38.0,30.10,SE,135,1.0,6.0,31,0.00,,,0.00,Rainwise IP-100,2013-04-17 17:26:00,
2013-04-17 13:31:00,70.0,36.0,30.10,ESE,112,0.0,6.0,29,0.00,,,0.00,Rainwise IP-100,2013-04-17 17:31:00,
2013-04-17 13:36:00,70.0,39.0,30.10,NW,315,0.0,6.0,32,0.00,,,0.00,Rainwise IP-100,2013-04-17 17:36:00,
2013-04-17 13:41:00,71.0,38.0,30.09,NW,315,4.0,7.0,30,0.00,,,0.00,Rainwise IP-100,2013-04-17 17:41:00,
2013-04-17 13:46:00,71.0,37.0,30.09,North,360,3.0,9.0,29,0.00,,,0.00,Rainwise IP-100,2013-04-17 17:46:00,
2013-04-17 13:51:00,71.0,36.0,30.09,NNE,22,5.0,12.0,27,0.00,,,0.00,Rainwise IP-100,2013-04-17 17:51:00,
2013-04-17 13:56:00,71.0,36.0,30.09,North,360,9.0,10.0,27,0.00,,,0.00,Rainwise IP-100,2013-04-17 17:56:00,
2013-04-17 14:01:00,70.0,33.0,30.10,East,90,3.0,9.0,25,0.00,,,0.00,Rainwise IP-100,2013-04-17 18:01:00,
2013-04-17 14:06:00,71.0,33.0,30.10,NNW,337,3.0,9.0,25,0.00,,,0.00,Rainwise IP-100,2013-04-17 18:06:00,
2013-04-17 14:11:00,72.0,33.0,30.09,NNW,337,8.0,9.0,24,0.00,,,0.00,Rainwise IP-100,2013-04-17 18:11:00,
2013-04-17 14:16:00,71.0,31.0,30.09,North,360,7.0,12.0,22,0.00,,,0.00,Rainwise IP-100,2013-04-17 18:16:00,
2013-04-17 14:21:00,71.0,31.0,30.10,North,360,7.0,11.0,22,0.00,,,0.00,Rainwise IP-100,2013-04-17 18:21:00,
2013-04-17 14:26:00,72.0,33.0,30.10,North,360,1.0,7.0,24,0.00,,,0.00,Rainwise IP-100,2013-04-17 18:26:00,
2013-04-17 14:31:00,73.0,35.0,30.10,North,360,2.0,6.0,24,0.00,,,0.00,Rainwise IP-100,2013-04-17 18:31:00,
2013-04-17 14:36:00,73.0,35.0,30.10,East,90,2.0,8.0,24,0.00,,,0.00,Rainwise IP-100,2013-04-17 18:36:00,
2013-04-17 14:41:00,74.0,35.0,30.08,NNW,337,7.0,10.0,24,0.00,,,0.00,Rainwise IP-100,2013-04-17 18:41:00,
2013-04-17 14:46:00,74.0,35.0,30.08,North,360,4.0,8.0,24,0.00,,,0.00,Rainwise IP-100,2013-04-17 18:46:00,
2013-04-17 14:51:00,74.0,35.0,30.08,North,360,3.0,7.0,23,0.00,,,0.00,Rainwise IP-100,2013-04-17 18:51:00,
2013-04-17 14:56:00,74.0,35.0,30.08,NW,315,5.0,8.0,24,0.00,,,0.00,Rainwise IP-100,2013-04-17 18:56:00,
2013-04-17 15:01:00,74.0,33.0,30.08,NNW,337,6.0,8.0,22,0.00,,,0.00,Rainwise IP-100,2013-04-17 19:01:00,
2013-04-17 15:06:00,72.0,31.0,30.08,East,90,6.0,9.0,22,0.00,,,0.00,Rainwise IP-100,2013-04-17 19:06:00,
2013-04-17 15:11:00,72.0,29.0,30.08,NW,315,7.0,13.0,20,0.00,,,0.00,Rainwise IP-100,2013-04-17 19:11:00,
2013-04-17 15:16:00,73.0,29.0,30.08,NNW,337,7.0,9.0,20,0.00,,,0.00,Rainwise IP-100,2013-04-17 19:16:00,
2013-04-17 15:21:00,73.0,31.0,30.08,SSE,157,1.0,7.0,21,0.00,,,0.00,Rainwise IP-100,2013-04-17 19:21:00,
2013-04-17 15:26:00,73.0,29.0,30.08,North,360,3.0,9.0,19,0.00,,,0.00,Rainwise IP-100,2013-04-17 19:26:00,
2013-04-17 15:31:00,73.0,29.0,30.07,NNW,337,2.0,8.0,20,0.00,,,0.00,Rainwise IP-100,2013-04-17 19:31:00,
2013-04-17 15:36:00,74.0,31.0,30.07,NNW,337,5.0,8.0,20,0.00,,,0.00,Rainwise IP-100,2013-04-17 19:36:00,
2013-04-17 15:41:00,72.0,31.0,30.07,NE,45,4.0,12.0,22,0.00,,,0.00,Rainwise IP-100,2013-04-17 19:41:00,
2013-04-17 15:46:00,74.0,33.0,30.07,WNW,292,1.0,8.0,22,0.00,,,0.00,Rainwise IP-100,2013-04-17 19:46:00,
2013-04-17 15:51:00,74.0,31.0,30.08,North,360,6.0,7.0,20,0.00,,,0.00,Rainwise IP-100,2013-04-17 19:51:00,
2013-04-17 15:56:00,74.0,32.0,30.08,NNW,337,4.0,7.0,21,0.00,,,0.00,Rainwise IP-100,2013-04-17 19:56:00,
2013-04-17 16:01:00,74.0,32.0,30.08,NE,45,9.0,11.0,21,0.00,,,0.00,Rainwise IP-100,2013-04-17 20:01:00,
2013-04-17 16:06:00,73.0,29.0,30.08,NE,45,5.0,9.0,20,0.00,,,0.00,Rainwise IP-100,2013-04-17 20:06:00,
2013-04-17 16:11:00,73.0,31.0,30.09,North,360,4.0,7.0,21,0.00,,,0.00,Rainwise IP-100,2013-04-17 20:11:00,
2013-04-17 16:16:00,74.0,33.0,30.09,NE,45,6.0,6.0,22,0.00,,,0.00,Rainwise IP-100,2013-04-17 20:16:00,
2013-04-17 16:21:00,74.0,31.0,30.08,NNW,337,9.0,10.0,20,0.00,,,0.00,Rainwise IP-100,2013-04-17 20:21:00,
2013-04-17 16:26:00,73.0,29.0,30.08,NNW,337,7.0,10.0,20,0.00,,,0.00,Rainwise IP-100,2013-04-17 20:26:00,
2013-04-17 16:31:00,74.0,33.0,30.08,SSE,157,0.0,10.0,22,0.00,,,0.00,Rainwise IP-100,2013-04-17 20:31:00,
2013-04-17 16:36:00,74.0,31.0,30.08,NW,315,6.0,8.0,20,0.00,,,0.00,Rainwise IP-100,2013-04-17 20:36:00,
2013-04-17 16:41:00,75.0,32.0,30.08,South,180,1.0,7.0,20,0.00,,,0.00,Rainwise IP-100,2013-04-17 20:41:00,
2013-04-17 16:46:00,73.0,31.0,30.08,ESE,112,3.0,7.0,21,0.00,,,0.00,Rainwise IP-100,2013-04-17 20:46:00,
2013-04-17 16:51:00,73.0,32.0,30.09,North,360,6.0,7.0,22,0.00,,,0.00,Rainwise IP-100,2013-04-17 20:51:00,
2013-04-17 16:56:00,74.0,31.0,30.09,North,360,5.0,9.0,20,0.00,,,0.00,Rainwise IP-100,2013-04-17 20:56:00,
2013-04-17 17:01:00,74.0,32.0,30.08,West,270,1.0,7.0,21,0.00,,,0.00,Rainwise IP-100,2013-04-17 21:01:00,
2013-04-17 17:06:00,74.0,31.0,30.08,SE,135,4.0,5.0,20,0.00,,,0.00,Rainwise IP-100,2013-04-17 21:06:00,
2013-04-17 17:11:00,75.0,32.0,30.08,East,90,3.0,5.0,20,0.00,,,0.00,Rainwise IP-100,2013-04-17 21:11:00,
2013-04-17 17:16:00,73.0,31.0,30.08,East,90,2.0,5.0,21,0.00,,,0.00,Rainwise IP-100,2013-04-17 21:16:00,
2013-04-17 17:21:00,74.0,33.0,30.09,North,360,1.0,3.0,22,0.00,,,0.00,Rainwise IP-100,2013-04-17 21:21:00,
2013-04-17 17:26:00,75.0,32.0,30.09,West,270,0.0,6.0,21,0.00,,,0.00,Rainwise IP-100,2013-04-17 21:26:00,
2013-04-17 17:31:00,74.0,33.0,30.08,SE,135,2.0,5.0,22,0.00,,,0.00,Rainwise IP-100,2013-04-17 21:31:00,
2013-04-17 17:36:00,75.0,33.0,30.08,South,180,2.0,6.0,22,0.00,,,0.00,Rainwise IP-100,2013-04-17 21:36:00,
2013-04-17 17:41:00,75.0,32.0,30.09,ENE,67,3.0,6.0,21,0.00,,,0.00,Rainwise IP-100,2013-04-17 21:41:00,
2013-04-17 17:46:00,72.0,31.0,30.09,ESE,112,4.0,8.0,22,0.00,,,0.00,Rainwise IP-100,2013-04-17 21:46:00,
2013-04-17 17:51:00,72.0,31.0,30.11,SSE,157,3.0,9.0,22,0.00,,,0.00,Rainwise IP-100,2013-04-17 21:51:00,
2013-04-17 17:56:00,71.0,32.0,30.11,SE,135,1.0,9.0,24,0.00,,,0.00,Rainwise IP-100,2013-04-17 21:56:00,
2013-04-17 18:01:00,72.0,32.0,30.11,East,90,5.0,6.0,23,0.00,,,0.00,Rainwise IP-100,2013-04-17 22:01:00,
2013-04-17 18:06:00,72.0,31.0,30.11,East,90,5.0,7.0,22,0.00,,,0.00,Rainwise IP-100,2013-04-17 22:06:00,
2013-04-17 18:11:00,72.0,32.0,30.11,NE,45,1.0,6.0,23,0.00,,,0.00,Rainwise IP-100,2013-04-17 22:11:00,
2013-04-17 18:16:00,71.0,31.0,30.11,North,360,6.0,7.0,23,0.00,,,0.00,Rainwise IP-100,2013-04-17 22:16:00,
2013-04-17 18:21:00,71.0,32.0,30.11,ENE,67,2.0,6.0,24,0.00,,,0.00,Rainwise IP-100,2013-04-17 22:21:00,
2013-04-17 18:26:00,70.0,32.0,30.11,NE,45,2.0,6.0,24,0.00,,,0.00,Rainwise IP-100,2013-04-17 22:26:00,
2013-04-17 18:31:00,71.0,33.0,30.12,NNE,22,0.0,3.0,25,0.00,,,0.00,Rainwise IP-100,2013-04-17 22:31:00,
2013-04-17 18:36:00,70.0,32.0,30.12,ENE,67,4.0,6.0,24,0.00,,,0.00,Rainwise IP-100,2013-04-17 22:36:00,
2013-04-17 18:41:00,69.0,32.0,30.12,ESE,112,0.0,6.0,25,0.00,,,0.00,Rainwise IP-100,2013-04-17 22:41:00,
2013-04-17 18:46:00,69.0,32.0,30.12,ESE,112,2.0,4.0,25,0.00,,,0.00,Rainwise IP-100,2013-04-17 22:46:00,
2013-04-17 18:51:00,69.0,32.0,30.12,East,90,0.0,5.0,25,0.00,,,0.00,Rainwise IP-100,2013-04-17 22:51:00,
2013-04-17 18:56:00,69.0,32.0,30.12,NE,45,2.0,5.0,25,0.00,,,0.00,Rainwise IP-100,2013-04-17 22:56:00,
2013-04-17 19:01:00,69.0,32.0,30.12,NE,45,1.0,4.0,25,0.00,,,0.00,Rainwise IP-100,2013-04-17 23:01:00,
2013-04-17 19:06:00,68.0,31.0,30.12,East,90,1.0,2.0,25,0.00,,,0.00,Rainwise IP-100,2013-04-17 23:06:00,
2013-04-17 19:11:00,68.0,32.0,30.13,East,90,1.0,2.0,26,0.00,,,0.00,Rainwise IP-100,2013-04-17 23:11:00,
2013-04-17 19:16:00,68.0,32.0,30.13,East,90,2.0,3.0,26,0.00,,,0.00,Rainwise IP-100,2013-04-17 23:16:00,
2013-04-17 19:21:00,67.0,32.0,30.13,East,90,0.0,2.0,27,0.00,,,0.00,Rainwise IP-100,2013-04-17 23:21:00,
2013-04-17 19:26:00,67.0,32.0,30.13,East,90,0.0,0.0,27,0.00,,,0.00,Rainwise IP-100,2013-04-17 23:26:00,
2013-04-17 19:31:00,66.0,31.0,30.13,East,90,0.0,0.0,27,0.00,,,0.00,Rainwise IP-100,2013-04-17 23:31:00,
2013-04-17 19:36:00,66.0,32.0,30.13,East,90,0.0,0.0,28,0.00,,,0.00,Rainwise IP-100,2013-04-17 23:36:00,
2013-04-17 19:41:00,65.0,33.0,30.14,East,90,0.0,0.0,30,0.00,,,0.00,Rainwise IP-100,2013-04-17 23:41:00,
2013-04-17 19:46:00,65.0,33.0,30.14,East,90,0.0,0.0,30,0.00,,,0.00,Rainwise IP-100,2013-04-17 23:46:00,
2013-04-17 19:51:00,65.0,32.0,30.15,East,90,0.0,0.0,29,0.00,,,0.00,Rainwise IP-100,2013-04-17 23:51:00,
2013-04-17 19:56:00,65.0,32.0,30.15,East,90,0.0,0.0,29,0.00,,,0.00,Rainwise IP-100,2013-04-17 23:56:00,
2013-04-17 20:01:00,64.0,33.0,30.15,SE,135,3.0,5.0,32,0.00,,,0.00,Rainwise IP-100,2013-04-18 00:01:00,
2013-04-17 20:06:00,63.0,38.0,30.15,SE,135,1.0,7.0,39,0.00,,,0.00,Rainwise IP-100,2013-04-18 00:06:00,
2013-04-17 20:11:00,63.0,41.0,30.17,SSE,157,2.0,8.0,44,0.00,,,0.00,Rainwise IP-100,2013-04-18 00:11:00,
2013-04-17 20:16:00,63.0,42.0,30.17,SE,135,10.0,10.0,47,0.00,,,0.00,Rainwise IP-100,2013-04-18 00:16:00,
2013-04-17 20:21:00,63.0,43.0,30.17,SE,135,3.0,11.0,48,0.00,,,0.00,Rainwise IP-100,2013-04-18 00:21:00,
2013-04-17 20:26:00,63.0,43.0,30.17,ESE,112,7.0,7.0,49,0.00,,,0.00,Rainwise IP-100,2013-04-18 00:26:00,
2013-04-17 20:31:00,62.0,42.0,30.17,SE,135,5.0,10.0,49,0.00,,,0.00,Rainwise IP-100,2013-04-18 00:31:00,
2013-04-17 20:36:00,62.0,42.0,30.17,East,90,0.0,10.0,49,0.00,,,0.00,Rainwise IP-100,2013-04-18 00:36:00,
2013-04-17 20:41:00,62.0,43.0,30.18,ESE,112,4.0,6.0,50,0.00,,,0.00,Rainwise IP-100,2013-04-18 00:41:00,
2013-04-17 20:46:00,61.0,43.0,30.18,East,90,0.0,5.0,52,0.00,,,0.00,Rainwise IP-100,2013-04-18 00:46:00,
2013-04-17 20:51:00,61.0,43.0,30.19,East,90,0.0,4.0,52,0.00,,,0.00,Rainwise IP-100,2013-04-18 00:51:00,
2013-04-17 20:56:00,60.0,43.0,30.19,East,90,0.0,2.0,53,0.00,,,0.00,Rainwise IP-100,2013-04-18 00:56:00,
2013-04-17 21:01:00,60.0,44.0,30.20,East,90,0.0,1.0,55,0.00,,,0.00,Rainwise IP-100,2013-04-18 01:01:00,
2013-04-17 21:06:00,59.0,42.0,30.20,East,90,0.0,0.0,53,0.00,,,0.00,Rainwise IP-100,2013-04-18 01:06:00,
2013-04-17 21:11:00,59.0,43.0,30.21,East,90,0.0,0.0,56,0.00,,,0.00,Rainwise IP-100,2013-04-18 01:11:00,
2013-04-17 21:16:00,59.0,43.0,30.21,ESE,112,1.0,1.0,56,0.00,,,0.00,Rainwise IP-100,2013-04-18 01:16:00,
2013-04-17 21:21:00,59.0,43.0,30.21,South,180,2.0,5.0,56,0.00,,,0.00,Rainwise IP-100,2013-04-18 01:21:00,
2013-04-17 21:26:00,59.0,42.0,30.21,SE,135,5.0,5.0,54,0.00,,,0.00,Rainwise IP-100,2013-04-18 01:26:00,
2013-04-17 21:31:00,59.0,42.0,30.22,SE,135,2.0,6.0,54,0.00,,,0.00,Rainwise IP-100,2013-04-18 01:31:00,
2013-04-17 21:36:00,59.0,42.0,30.22,SE,135,0.0,3.0,54,0.00,,,0.00,Rainwise IP-100,2013-04-18 01:36:00,
2013-04-17 21:41:00,59.0,43.0,30.22,SE,135,0.0,2.0,56,0.00,,,0.00,Rainwise IP-100,2013-04-18 01:41:00,
2013-04-17 21:46:00,58.0,43.0,30.22,South,180,1.0,3.0,57,0.00,,,0.00,Rainwise IP-100,2013-04-18 01:46:00,
2013-04-17 21:51:00,58.0,43.0,30.22,SE,135,1.0,4.0,57,0.00,,,0.00,Rainwise IP-100,2013-04-18 01:51:00,
2013-04-17 21:56:00,58.0,43.0,30.22,SE,135,1.0,3.0,57,0.00,,,0.00,Rainwise IP-100,2013-04-18 01:56:00,
2013-04-17 22:01:00,58.0,43.0,30.22,South,180,1.0,4.0,57,0.00,,,0.00,Rainwise IP-100,2013-04-18 02:01:00,
2013-04-17 22:06:00,57.0,43.0,30.22,SE,135,0.0,4.0,59,0.00,,,0.00,Rainwise IP-100,2013-04-18 02:06:00,
2013-04-17 22:11:00,57.0,42.0,30.22,SE,135,0.0,3.0,58,0.00,,,0.00,Rainwise IP-100,2013-04-18 02:11:00,
2013-04-17 22:16:00,57.0,43.0,30.22,South,180,3.0,3.0,60,0.00,,,0.00,Rainwise IP-100,2013-04-18 02:16:00,
2013-04-17 22:21:00,56.0,43.0,30.22,South,180,2.0,5.0,62,0.00,,,0.00,Rainwise IP-100,2013-04-18 02:21:00,
2013-04-17 22:26:00,56.0,44.0,30.22,South,180,1.0,4.0,64,0.00,,,0.00,Rainwise IP-100,2013-04-18 02:26:00,
2013-04-17 22:31:00,56.0,44.0,30.22,SSE,157,1.0,3.0,64,0.00,,,0.00,Rainwise IP-100,2013-04-18 02:31:00,
2013-04-17 22:36:00,56.0,45.0,30.22,SSE,157,2.0,3.0,66,0.00,,,0.00,Rainwise IP-100,2013-04-18 02:36:00,
2013-04-17 22:41:00,55.0,46.0,30.23,South,180,3.0,5.0,70,0.00,,,0.00,Rainwise IP-100,2013-04-18 02:41:00,
2013-04-17 22:46:00,55.0,47.0,30.23,South,180,4.0,4.0,73,0.00,,,0.00,Rainwise IP-100,2013-04-18 02:46:00,
2013-04-17 22:51:00,55.0,47.5,30.23,South,180,2.0,6.0,74,0.00,,,0.00,Rainwise IP-100,2013-04-18 02:51:00,
2013-04-17 22:56:00,55.0,47.0,30.23,South,180,3.0,6.0,73,0.00,,,0.00,Rainwise IP-100,2013-04-18 02:56:00,
2013-04-17 23:01:00,55.0,47.0,30.23,South,180,2.0,6.0,73,0.00,,,0.00,Rainwise IP-100,2013-04-18 03:01:00,
2013-04-17 23:06:00,54.0,47.0,30.23,South,180,2.0,3.0,76,0.00,,,0.00,Rainwise IP-100,2013-04-18 03:06:00,
2013-04-17 23:11:00,54.0,47.5,30.24,South,180,3.0,3.0,78,0.00,,,0.00,Rainwise IP-100,2013-04-18 03:11:00,
2013-04-17 23:16:00,54.0,47.5,30.24,South,180,2.0,4.0,78,0.00,,,0.00,Rainwise IP-100,2013-04-18 03:16:00,
2013-04-17 23:21:00,54.0,47.5,30.25,South,180,2.0,3.0,78,0.00,,,0.00,Rainwise IP-100,2013-04-18 03:21:00,
2013-04-17 23:26:00,53.0,46.0,30.25,South,180,2.0,4.0,77,0.00,,,0.00,Rainwise IP-100,2013-04-18 03:26:00,
2013-04-17 23:31:00,53.0,46.0,30.25,South,180,1.0,3.0,78,0.00,,,0.00,Rainwise IP-100,2013-04-18 03:31:00,
2013-04-17 23:36:00,53.0,47.0,30.25,South,180,2.0,3.0,79,0.00,,,0.00,Rainwise IP-100,2013-04-18 03:36:00,
2013-04-17 23:41:00,53.0,47.0,30.25,South,180,2.0,3.0,81,0.00,,,0.00,Rainwise IP-100,2013-04-18 03:41:00,
2013-04-17 23:46:00,53.0,47.5,30.25,South,180,2.0,3.0,82,0.00,,,0.00,Rainwise IP-100,2013-04-18 03:46:00,
2013-04-17 23:51:00,53.0,47.5,30.25,South,180,0.0,3.0,82,0.00,,,0.00,Rainwise IP-100,2013-04-18 03:51:00,
2013-04-17 23:56:00,52.0,47.5,30.25,South,180,1.0,2.0,84,0.00,,,0.00,Rainwise IP-100,2013-04-18 03:56:00,